This is the latest recevied weather packets stored in our database for station/object OE-11138. If no packets are shown the sender has not sent any weather packets the latest 10 day(s).
| Time | Temp. | Humidity | Pressure | Rain* | Wind** | Luminosity | Snow |
|---|---|---|---|---|---|---|---|
| 1787616695 | 8.33° C | 80% | 712 hPa | 0 mm | - | 0 W/m² | - |
| 1787616322 | 8.33° C | 80% | 712.2 hPa | 0 mm | - | 0 W/m² | - |
| 1787615722 | 8.33° C | 80% | 712.2 hPa | 0 mm | - | 0 W/m² | - |
| 1787614894 | 8.33° C | 80% | 712.3 hPa | 0 mm | - | 0 W/m² | - |
| 1787614521 | 7.78° C | 78% | 712.4 hPa | 0 mm | - | 0 W/m² | - |
| 1787613922 | 7.78° C | 80% | 712.2 hPa | 0 mm | - | 0 W/m² | - |
| 1787613322 | 7.78° C | 81% | 712.3 hPa | 0.51 mm | - | 0 W/m² | - |
| 1787612721 | 7.22° C | 86% | 712.1 hPa | 1.02 mm | - | 0 W/m² | - |
| 1787612122 | 7.22° C | 86% | 712.5 hPa | 1.27 mm | - | 0 W/m² | - |
| 1787611295 | 7.22° C | 87% | 712.6 hPa | 1.27 mm | - | 0 W/m² | - |
| 1787610921 | 7.22° C | 86% | 712.7 hPa | 1.52 mm | - | 0 W/m² | - |
| 1787610322 | 8.33° C | 79% | 713.2 hPa | 1.52 mm | - | 0 W/m² | - |
| 1787609495 | 7.78° C | 85% | 713.1 hPa | 1.78 mm | - | 0 W/m² | - |
| 1787609122 | 8.89° C | 72% | 714.3 hPa | 1.52 mm | - | 0 W/m² | - |
| 1787607695 | 7.78° C | 80% | 713.5 hPa | 1.02 mm | - | 0 W/m² | - |
| 1787607322 | 9.44° C | 70% | 713.4 hPa | 1.27 mm | - | 0 W/m² | - |
| 1787606721 | 9.44° C | 67% | 713.5 hPa | 2.29 mm | - | 0 W/m² | - |
| 1787605895 | 8.89° C | 71% | 713.7 hPa | 4.32 mm | - | 0 W/m² | - |
| 1787605522 | 8.33° C | 77% | 714 hPa | 5.33 mm | - | 0 W/m² | - |
| 1787604922 | 9.44° C | 70% | 713.7 hPa | 5.59 mm | - | 0 W/m² | - |
| 1787604095 | 8.89° C | 71% | 713.9 hPa | 5.59 mm | - | 0 W/m² | - |
| 1787603722 | 8.33° C | 78% | 713.7 hPa | 5.33 mm | - | 0 W/m² | - |
| 1787603122 | 7.78° C | 76% | 713.9 hPa | 5.08 mm | - | 0 W/m² | - |
| 1787602533 | 8.33° C | 85% | 714.8 hPa | 4.32 mm | - | 0 W/m² | - |
| 1787601922 | 8.33° C | 89% | 714.7 hPa | 2.29 mm | - | 0 W/m² | - |
* Rain latest hour (hover to see other rain measurements)
** Current wind speed in m/s (hover to see current wind gust speed)